Showing default

HAIYANG 4A, 61936

Orbit data source: Space-Track

HAIYANG 4A, 61936 is a Chinese payload satellite in SSO that was launched on Wed, 13 Nov 2024 UTC via a CHANG ZHENG 4B launch vehicle from the Taiyaun Space Center, China (TSC). Payload-class satellites include a variety of spacecraft equipped with specific instruments for various scientific and technological missions. These include communications satellites like Starlink; space stations such as the ISS; scientific satellites like the Hubble; Earth observation satellites from companies like Planet Labs, Umbra, and HawkEye 360; GPS; miniature CubeSats for education and research; and military/defense satellites.

Loading next visibility...
Identifier
61936, 2024-208A
Orbit
SSO
Country
Flag of CNCN / PRC
Related business
Manufacturer
CAST
Mission
Operational Civil Earth Obs Sci
Bus & Motor
CAST-968?, Unknown motor
Mass
~1,500 kg wet, ~1,500 kg dry
Launch date (UTC)
2024-11-13 (2 years ago)
Launch vehicle
CHANG ZHENG 4B
Launch site
Taiyaun Space Center, China (TSC)
Object type
Payload
Rocket body
Debris
Shape & HBR
Box + 2 Pan, 2.0 m
Radar Cross Section
2.315 m², Large (>1 m²)

Expand to show TLE details & history
Last TLE update: 12 hours ago

TLE from 12 hours ago
0 HAIYANG 4A
1 61936U 24208A   26150.19468661 -.00000037  00000-0  19442-5 0  9992
2 61936  98.0030 158.1988 0001125 136.7462 223.3834 14.73278966 82799
Epoch: 2026-05-30T04:40Z
TLE epoch observation values (Epoch: 2026-05-30T04:40:20.923Z)
Latitude
-0.00004°
Longitude
-159.60258°
Altitude
654.204 km
Speed
7.53 km/s
True Right ascension
10h 32m 47s
True Declination
0° 00' 00"
Sunlit
Object was in daylight at epoch
Visualization orbit readout
Latitude
Unknown
Longitude
Unknown
Altitude
Unknown
Speed
Unknown
Apparent Right ascension
Unknown
Apparent Declination
Unknown
Sunlit
N/A
Visualization observer readout
Local Sidereal Time
02:10:02
Azimuth
Unknown
Elevation
Unknown
Doppler factor
Unknown
Orbital elements
Apogee altitude
648.465 km
Perigee altitude
646.884 km
Semi-major axis
7,025.811 km
Eccentricity
0.00011
Inclination
98.003°
RAAN
158.1988°
Arg. of periapsis
136.7462°
True anomaly
223.37455°
Mean anomaly
223.3834°
Eccentric anomaly
223.37897°
Mean motion
3.68552 °/min
Orbital period
97.68 mins
BSTAR
0.0000019442
Loading maneuver chart data...
Computing Atmospheric mass density...
Loading historical data...
Loading historical data...
Loading historical data...
Loading historical data...
Loading historical data...
Loading historical data...
Loading historical data...
Other satellites on launch #208 in the year 2024 (2024-11-13 UTC)

Documentation

Showing up to 5 results
|